Theta_e
314 314 315 315 316 317 317 317 318 319 321 322 321 321 323 327 325 322 327 332 328 329 333 332 332 337 338 337 339 336 334 336 339 339 340 336 333 336 343 351 356 356 358 362 362 360 360 358 356 355 356 355 355 356 356 356 356 357 357 358 358 359 361 361 361 361 360 360 361 360 361 361 360 360 359 358 357 358 360 359 358 356 356 356 359 360 361
312 312 313 314 314 315 316 316 317 318 320 320 320 322 324 325 326 326 329 332 331 331 334 335 337 339 338 336 338 337 337 343 346 345 343 339 336 334 336 345 354 356 358 360 364 364 361 358 356 356 355 355 355 355 356 357 356 356 357 358 359 359 360 361 361 362 361 361 362 361 361 361 361 361 359 360 359 359 360 360 359 358 358 357 358 359 360
312 312 313 314 314 315 316 316 317 317 318 320 320 321 323 323 324 327 329 329 329 330 337 343 344 341 339 337 337 341 345 348 350 349 346 344 345 345 341 341 347 353 356 359 363 364 363 360 358 356 355 355 355 355 355 356 356 356 357 358 359 360 360 361 362 361 362 362 362 363 362 363 362 361 360 360 360 360 360 360 360 359 359 359 358 358 360
312 312 313 314 314 315 315 315 317 317 317 320 320 321 323 323 325 328 327 325 328 335 342 344 345 342 342 340 339 346 352 353 354 354 352 351 354 355 353 352 348 348 351 355 360 361 360 359 357 356 356 356 355 355 356 355 356 356 356 358 359 360 360 361 362 363 362 363 363 363 363 363 364 363 361 361 361 361 361 361 361 361 361 360 360 358 360
311 312 313 314 316 317 317 317 317 318 318 320 320 322 330 334 333 330 327 328 335 342 341 342 344 345 346 347 347 353 356 356 356 355 354 355 355 356 358 359 356 351 347 349 355 357 359 358 356 355 356 357 355 356 356 356 355 355 357 358 359 361 360 361 363 364 363 364 364 364 365 364 365 364 363 362 361 361 361 361 362 362 362 361 361 361 360
311 312 314 316 318 317 319 320 319 320 320 320 320 324 335 341 337 333 334 337 340 339 338 340 342 343 346 348 349 353 355 356 356 356 355 356 356 358 357 358 359 358 353 348 350 356 357 356 355 356 355 357 357 356 355 356 356 356 357 358 360 361 360 362 365 365 364 365 365 365 365 365 365 365 363 362 362 362 362 362 362 362 362 362 362 362 361
310 311 314 318 319 319 321 325 325 323 321 319 323 331 337 337 336 336 338 339 337 335 335 336 338 340 342 343 346 349 351 353 354 354 355 355 356 357 358 359 361 362 359 351 347 352 356 354 354 355 356 356 356 355 356 356 356 356 357 358 360 361 361 363 365 365 365 365 365 365 366 365 364 365 364 364 363 361 361 362 363 363 362 362 362 363 362
310 311 313 318 320 320 323 329 328 327 327 326 331 336 335 333 333 335 336 336 334 332 332 333 334 338 340 341 345 348 349 351 352 351 352 354 355 355 357 358 359 362 361 353 345 348 354 353 353 355 355 355 355 356 356 355 355 357 357 358 360 361 362 363 365 365 364 365 366 365 365 365 364 365 364 364 364 362 362 362 362 363 363 363 363 363 362
311 311 313 316 318 318 323 329 330 329 331 332 334 337 335 331 329 331 332 333 331 329 331 332 333 336 340 344 347 347 346 348 349 349 350 351 353 355 356 358 360 360 360 352 344 347 353 352 351 354 354 355 355 355 354 356 357 357 357 359 361 361 362 362 364 365 364 364 365 365 365 365 364 364 364 364 364 363 362 362 362 363 363 363 362 362 362
311 312 313 316 319 320 324 330 329 326 327 328 330 336 335 330 326 327 328 328 328 327 329 329 331 338 345 349 349 344 339 338 340 345 348 350 352 354 355 358 361 357 353 349 344 347 352 352 351 353 353 354 356 355 355 356 356 357 358 360 361 361 362 363 364 365 364 364 364 364 364 364 364 364 364 364 365 364 362 362 362 362 363 363 363 362 362
311 312 314 316 319 322 327 328 325 323 325 326 328 336 337 329 324 324 324 324 324 324 324 326 331 341 349 351 346 336 330 330 332 338 346 350 351 354 357 359 359 353 349 349 346 348 352 353 351 352 353 355 355 355 356 356 357 357 358 360 361 362 362 362 364 364 364 364 364 364 364 364 364 364 365 364 364 364 363 362 362 362 362 362 363 363 362
312 312 314 315 317 322 325 324 322 322 323 324 331 340 337 326 322 322 322 322 321 320 321 325 329 336 341 340 334 326 325 328 330 336 347 352 352 354 358 360 360 353 350 351 349 350 353 353 351 352 355 354 355 356 357 357 356 358 359 360 361 363 363 362 364 364 364 364 364 363 365 365 364 364 365 365 365 364 363 363 362 362 362 362 362 363 362
311 312 314 315 316 320 323 322 321 321 323 329 336 337 329 323 321 320 319 319 318 318 319 323 325 327 326 325 324 322 323 326 329 336 349 354 354 356 358 359 360 355 352 353 352 351 352 352 352 354 355 355 356 358 358 358 357 358 359 361 363 363 362 363 364 364 364 364 364 364 364 365 365 365 365 364 364 364 364 362 362 362 363 361 362 362 362
311 311 313 315 317 319 320 320 321 321 326 334 332 324 320 320 320 319 318 317 317 317 318 320 321 322 321 321 322 321 322 325 328 338 350 354 354 356 357 359 359 357 354 355 353 350 353 354 354 354 354 355 358 359 358 359 358 358 360 362 364 364 364 363 365 365 364 364 364 363 363 365 365 364 365 364 364 364 364 362 363 363 363 363 363 362 363
311 312 313 315 318 318 318 320 321 321 324 326 321 317 319 320 318 318 317 316 315 316 317 317 319 320 321 321 321 321 321 323 327 338 352 354 352 354 356 356 359 359 355 354 352 353 355 354 354 355 355 357 360 360 359 360 358 358 361 363 365 366 365 364 365 366 366 365 364 363 363 364 365 365 365 365 364 364 364 363 364 364 364 364 363 364 364
313 314 315 317 318 317 316 318 320 319 318 317 316 317 319 318 317 317 317 317 316 315 316 316 317 320 321 321 321 321 321 321 325 336 350 354 352 354 355 356 358 360 360 355 351 354 356 355 356 356 357 361 363 361 361 360 359 359 363 365 367 367 365 366 367 367 367 365 364 363 364 365 365 365 366 365 365 365 366 365 365 365 365 365 364 363 363
315 315 316 317 316 315 315 317 318 316 315 314 315 316 317 317 317 316 316 317 316 315 316 316 317 319 320 320 321 321 321 322 324 333 347 353 352 354 355 356 357 359 362 360 356 356 356 355 356 357 359 364 365 364 363 362 360 362 366 368 369 367 366 366 368 368 367 366 364 363 363 364 366 367 367 366 366 366 366 366 366 366 365 365 364 364 363
315 315 315 315 315 314 315 316 316 316 315 315 315 316 317 316 315 315 315 316 316 316 317 316 317 318 320 321 322 321 321 323 323 329 344 352 351 352 354 355 356 357 358 362 364 364 362 359 358 359 363 366 366 365 364 364 363 366 370 369 369 367 368 367 368 368 367 366 365 365 364 364 366 367 367 367 367 367 367 367 367 366 366 365 365 364 364
314 315 316 315 314 313 314 316 316 316 316 315 315 316 316 315 315 315 315 316 316 316 317 317 316 317 319 321 322 321 321 323 323 327 341 351 350 350 352 352 355 357 357 359 363 365 366 365 363 363 364 366 366 368 368 366 365 368 371 370 368 368 368 367 367 367 367 366 364 365 365 365 366 367 367 367 368 368 368 368 368 367 366 366 366 365 365
314 315 315 313 312 313 315 317 317 316 315 314 314 315 316 315 315 315 315 316 317 317 318 317 317 317 318 320 321 320 320 323 322 324 337 349 350 349 350 350 351 354 355 358 360 361 362 363 365 366 368 366 368 369 367 364 365 369 369 368 368 368 367 366 367 367 367 366 365 365 366 366 366 368 368 368 368 369 369 369 368 368 368 367 367 366 365
314 315 314 313 313 315 317 317 315 314 313 313 314 314 315 315 316 315 315 316 317 317 317 317 317 318 319 320 320 320 321 323 322 323 334 348 349 347 348 349 348 350 352 354 356 357 357 359 361 363 365 366 367 369 368 367 369 370 369 368 368 368 367 367 367 368 367 367 365 365 367 368 368 368 368 368 368 368 369 369 368 368 367 368 367 366 365
314 314 313 313 313 315 315 314 313 313 314 314 314 314 315 316 316 315 315 316 317 317 318 317 317 318 319 319 319 320 321 322 321 324 335 345 346 344 346 346 347 348 350 351 352 354 355 356 358 359 361 362 365 367 368 369 370 370 370 369 369 369 369 368 367 367 368 367 366 366 367 368 369 366 363 365 366 367 367 368 368 367 366 368 369 368 367
312 312 311 312 313 313 313 312 313 313 313 314 315 315 316 316 315 315 316 316 316 318 318 318 318 317 318 318 318 319 321 322 322 326 336 341 341 341 343 343 345 347 347 347 350 351 353 354 355 356 358 359 361 363 365 367 368 369 370 369 368 369 370 369 368 368 367 366 367 367 366 368 370 365 360 360 362 363 364 366 366 367 366 366 367 369 368
311 311 310 311 312 313 312 312 313 313 314 315 316 316 316 316 316 316 316 315 316 317 317 318 318 318 318 318 318 319 321 323 323 327 334 336 336 338 340 341 343 344 345 346 347 349 350 353 353 354 356 357 359 361 362 365 367 369 370 369 368 368 369 370 372 372 369 367 369 369 368 369 370 368 363 361 358 356 359 361 363 365 365 365 365 366 365
310 310 310 310 311 312 311 311 312 313 314 315 316 317 317 317 317 316 315 315 316 317 317 317 318 317 317 318 319 320 322 323 324 326 331 333 333 336 338 339 341 342 343 344 345 347 348 351 352 352 353 354 356 358 360 362 365 367 369 370 369 369 370 371 372 372 372 370 370 370 370 369 370 368 367 365 361 354 351 353 356 359 360 361 362 362 363
310 310 309 309 310 310 311 311 312 312 313 314 316 317 318 318 318 316 316 316 316 317 316 317 318 317 317 318 319 319 321 323 324 325 328 330 330 333 336 338 339 340 341 343 344 345 347 348 350 351 351 351 353 355 358 361 363 365 367 368 369 370 371 371 371 371 372 371 370 370 369 368 367 367 365 366 364 358 351 351 353 352 352 354 356 356 358
309 309 309 309 310 310 310 310 311 311 312 313 315 316 317 318 317 317 316 316 317 317 316 317 318 318 318 318 318 319 320 323 324 324 326 328 328 329 333 337 337 338 339 341 342 344 346 347 349 349 349 349 351 353 356 360 362 363 364 365 366 367 368 368 369 369 368 369 369 369 368 366 366 365 364 364 363 360 357 356 352 344 340 344 349 352 354
309 309 309 310 310 310 310 310 311 311 312 313 313 315 317 317 316 316 316 315 316 317 317 316 317 319 318 318 318 319 320 322 323 323 325 327 327 327 329 333 336 337 338 339 341 343 344 346 347 348 348 348 349 351 354 357 360 362 362 363 364 364 365 366 367 366 366 367 367 366 365 364 363 364 363 362 360 356 353 349 343 335 331 334 339 343 348
309 309 309 309 310 310 310 310 310 310 311 312 313 315 316 317 316 316 316 315 316 317 317 316 316 317 317 317 318 319 319 321 323 323 324 326 328 327 327 330 333 335 336 337 339 340 341 343 345 345 345 346 348 349 351 354 357 358 359 359 360 362 363 365 365 366 365 364 362 362 362 362 361 361 360 357 353 349 344 341 336 333 330 330 332 334 338
308 308 308 308 309 309 308 308 308 308 309 310 311 313 314 317 318 318 317 317 316 317 317 317 316 316 317 317 317 318 319 320 321 322 324 326 328 328 327 328 330 333 334 335 336 337 339 340 342 342 343 344 346 347 349 352 354 354 354 352 352 354 357 360 361 362 360 358 356 358 358 358 357 355 351 347 344 341 340 337 335 334 333 333 333 332 332
307 308 308 308 308 308 308 308 308 308 308 309 310 311 312 315 317 319 319 319 317 317 317 318 317 317 317 317 316 318 319 319 320 321 324 327 328 328 327 328 329 331 332 333 334 335 336 337 339 339 340 342 344 345 347 349 350 351 351 350 349 348 350 353 355 356 354 352 352 352 351 351 349 347 344 342 339 338 337 335 335 335 335 334 334 333 332
308 308 308 307 307 307 307 307 307 307 307 308 309 310 311 313 315 317 319 319 319 317 317 317 317 318 318 317 317 317 318 319 320 322 326 328 328 327 327 328 328 330 331 331 332 333 334 335 336 337 338 339 341 343 345 347 348 349 349 349 348 347 348 349 349 349 348 348 347 346 344 343 342 341 340 338 337 335 335 334 334 335 336 335 334 333 332
308 308 308 308 308 308 307 307 307 307 307 308 309 309 309 311 313 315 318 319 320 318 317 316 317 318 318 318 317 317 317 319 321 324 327 328 327 326 326 327 328 329 330 329 330 331 332 333 333 335 336 337 338 340 342 344 345 346 347 347 347 346 345 344 344 343 343 342 341 341 340 339 338 338 336 335 335 335 334 333 333 333 332 332 331 331 332
309 309 308 308 308 308 308 307 307 307 307 307 308 308 308 310 311 314 317 319 320 318 317 317 317 317 317 318 318 318 318 320 323 326 327 326 325 325 325 325 327 329 329 327 326 327 329 330 330 332 334 336 336 337 339 341 343 344 345 345 345 344 343 342 341 340 338 338 337 337 336 335 336 336 335 334 334 333 332 332 330 329 327 326 325 326 328
309 308 308 308 308 308 308 307 306 307 306 306 307 308 308 309 310 312 315 317 319 318 318 317 316 317 317 318 319 320 322 323 324 324 324 324 323 324 324 324 325 327 328 326 324 324 326 328 327 329 332 334 334 335 336 338 340 342 343 343 343 341 340 339 338 337 335 335 334 334 334 333 333 333 333 332 332 331 330 329 328 326 326 325 324 323 324
308 308 308 308 308 308 308 307 307 306 307 307 307 308 308 308 309 310 312 315 318 319 318 317 318 318 318 320 321 323 324 324 322 322 322 322 321 321 322 322 323 324 326 325 322 322 324 325 325 327 330 332 332 333 333 336 338 339 340 341 341 339 337 336 336 334 333 332 331 331 331 330 330 330 330 329 329 329 329 328 326 325 325 325 324 324 323
308 308 308 308 307 308 307 307 307 307 306 307 307 307 308 308 308 308 310 312 315 317 318 319 320 320 321 321 321 321 321 322 321 320 320 320 319 318 319 320 320 321 323 323 321 320 322 323 323 326 328 330 330 331 331 332 335 337 338 339 339 337 335 334 333 332 330 329 329 329 329 328 328 328 327 327 327 327 327 327 326 325 324 323 323 323 322
308 308 308 307 307 307 307 307 307 306 306 306 306 307 307 307 307 307 308 309 312 314 316 317 318 318 318 318 318 318 318 319 319 320 320 320 318 318 317 317 318 319 320 320 320 320 321 321 322 324 325 326 327 328 329 330 333 336 336 337 336 335 333 332 331 330 329 327 327 327 326 327 326 326 326 325 326 325 325 324 323 323 322 321 321 321 320
308 308 308 307 307 307 306 306 306 306 306 306 306 306 306 306 306 306 306 307 309 311 313 314 315 315 316 316 315 315 315 316 317 318 319 318 318 317 316 315 316 317 318 318 319 319 319 319 320 321 322 322 324 324 325 327 330 332 332 331 331 330 329 329 329 328 327 325 324 323 323 323 322 322 322 323 322 322 321 321 320 320 320 320 319 319 318
309 308 308 308 307 307 307 306 306 306 306 306 306 305 306 306 306 306 306 306 307 309 310 311 312 313 314 314 314 314 313 314 315 316 316 316 316 316 315 315 315 316 317 317 317 317 318 318 318 318 319 319 320 320 321 322 325 326 326 326 326 326 325 325 325 324 323 322 320 319 318 318 318 318 317 318 318 318 318 317 317 317 317 317 316 316 315
308 308 308 308 307 307 307 306 306 305 306 306 306 305 305 305 305 305 305 305 306 307 308 309 310 311 312 313 313 313 312 312 313 313 314 314 315 315 315 314 314 315 316 316 316 316 316 316 315 316 316 316 316 317 317 319 319 320 320 321 322 323 323 323 323 323 322 320 319 317 316 315 315 314 314 314 314 315 314 314 314 314 313 313 312 312 311
307 307 308 308 308 307 307 306 306 305 305 305 305 305 305 305 305 305 305 305 305 305 306 307 308 308 309 310 311 311 311 312 312 312 312 313 313 313 314 313 313 313 314 314 314 313 313 313 313 313 314 313 313 314 314 314 314 314 314 315 316 316 317 318 319 319 318 317 316 315 313 312 311 311 311 310 310 310 310 310 310 310 310 310 310 309 309
308 308 308 308 308 307 306 306 306 306 305 305 305 305 305 305 304 304 305 305 305 305 305 306 306 306 307 308 308 309 310 311 311 311 311 311 311 312 312 312 312 312 312 312 312 311 311 311 311 311 312 312 311 312 312 311 310 310 310 310 310 310 311 312 313 313 312 312 311 310 309 308 307 307 307 306 306 307 306 306 306 306 306 306 306 305 305
307 307 307 307 307 307 306 306 306 306 305 305 305 305 304 304 304 304 304 304 304 304 304 305 305 305 306 306 307 307 308 309 310 311 311 310 310 310 310 310 310 310 310 310 310 310 310 310 310 310 310 310 309 309 309 308 308 308 308 307 307 307 307 308 308 308 308 308 308 307 306 306 305 305 305 305 304 304 304 304 304 304 304 303 303 303 302
305 306 306 306 306 307 306 306 306 306 305 305 305 304 304 304 304 304 304 304 304 304 304 304 304 305 305 305 306 306 307 308 308 309 310 310 309 309 309 309 309 309 309 309 309 308 308 308 308 307 307 307 306 306 305 305 304 304 304 304 304 304 304 304 305 305 305 305 304 304 304 303 303 303 303 303 303 303 303 303 303 303 302 302 302 301 301
303 304 304 304 305 307 306 306 306 305 305 305 305 305 305 304 304 303 303 303 304 304 304 304 304 304 304 305 306 306 306 306 307 307 308 308 308 308 308 308 308 308 308 308 307 307 307 306 306 305 305 305 304 304 303 303 303 303 302 302 302 302 302 302 302 302 302 303 303 302 302 302 302 301 301 301 301 300 300 300 300 300 300 300 300 300 300
303 303 303 303 304 306 307 307 306 305 305 305 305 305 305 304 304 304 303 303 303 303 304 304 304 304 304 304 305 306 306 306 306 306 306 307 307 307 307 307 307 307 307 306 306 305 305 305 304 304 304 304 304 303 303 303 303 303 302 302 302 301 301 301 301 301 301 301 301 301 301 301 301 301 301 300 300 300 300 299 300 299 299 299 299 299 299
303 302 302 302 303 305 307 307 306 305 305 305 305 305 304 304 304 304 304 303 303 303 304 304 304 304 304 304 304 305 305 306 306 306 306 306 306 306 306 306 306 306 305 305 305 304 303 303 303 302 303 303 302 302 302 302 302 302 302 302 302 302 302 301 301 301 301 301 300 300 300 300 300 300 300 301 301 301 300 300 300 300 300 300 299 299 300
302 302 302 302 303 305 306 307 307 306 305 305 305 305 304 304 304 304 304 304 303 303 303 303 303 303 304 304 304 305 305 305 305 305 305 305 305 306 306 306 305 305 305 304 304 303 302 301 301 301 301 301 301 301 301 301 301 301 301 301 301 301 301 301 301 301 301 300 300 300 300 299 299 299 299 299 299 300 300 300 300 299 299 299 299 299 299
302 302 302 302 303 305 306 307 306 306 305 305 305 304 304 304 303 304 304 304 304 303 303 303 303 303 303 303 304 304 304 305 304 304 304 305 305 305 305 305 305 305 304 304 303 302 301 300 300 300 300 300 300 300 300 299 300 300 300 300 299 299 299 299 300 300 301 301 300 300 299 299 299 299 299 299 299 299 299 299 299 299 299 299 299 299 299
302 302 302 302 303 304 306 306 306 305 305 305 305 305 304 304 303 303 303 303 304 303 303 303 303 303 303 303 303 303 304 304 304 304 304 303 304 304 304 304 304 303 303 303 303 302 301 300 299 299 299 298 299 298 298 297 298 298 298 298 297 297 297 297 297 297 297 298 298 298 298 298 298 298 299 299 299 299 299 299 299 299 299 299 299 299 299
302 301 301 302 302 302 303 305 305 305 306 306 306 305 305 304 303 303 303 303 303 303 303 303 303 303 303 303 303 303 303 303 303 303 303 303 303 303 303 303 303 302 302 302 301 301 300 299 299 299 298 298 297 297 296 296 297 298 298 297 297 297 296 296 296 296 296 296 296 297 298 297 297 297 298 298 298 298 298 298 298 298 298 299 299 299 299
Wind_Speed
19 19 18 15 13 12 12 12 12 10 8 9 12 15 17 13 10 12 12 6 8 12 9 4 4 7 9 8 9 9 6 4 2 1 2 5 6 7 10 12 14 15 15 16 17 19 22 25 27 28 28 29 30 30 31 32 32 32 32 33 33 33 32 32 32 32 31 30 29 29 28 28 27 26 26 25 25 24 23 23 23 24 24 23 22 21 21
17 20 20 18 15 15 15 14 14 14 13 12 12 13 14 14 11 11 10 7 9 11 9 9 11 12 12 11 10 10 8 6 5 4 5 6 6 6 8 11 14 16 16 17 18 19 20 24 27 28 27 28 30 30 31 32 33 33 32 32 33 33 32 32 31 31 30 29 29 29 29 28 28 28 26 25 25 25 24 23 23 23 23 23 22 21 21
13 17 18 18 17 16 17 17 16 16 15 14 14 12 12 12 12 11 12 12 12 10 7 10 11 12 13 13 13 11 8 7 8 8 8 7 6 6 6 8 11 15 16 17 18 18 20 25 29 29 28 29 30 31 31 33 34 33 33 33 34 34 32 31 30 30 30 29 29 30 30 29 29 28 27 25 25 25 24 24 23 22 22 23 23 22 21
10 12 15 17 16 16 18 19 18 18 17 14 13 12 12 12 13 13 13 12 10 7 8 10 9 10 12 14 14 12 10 9 10 10 10 10 9 8 7 7 8 11 15 17 19 20 22 27 30 30 29 30 30 31 32 33 34 34 34 34 33 33 31 29 30 30 30 30 29 29 29 29 29 29 28 26 25 25 25 24 23 22 22 23 23 22 21
9 10 12 13 13 14 15 15 16 18 17 15 13 13 11 9 10 12 11 7 3 4 9 9 9 10 11 12 12 12 12 12 11 11 12 12 12 11 10 9 10 11 13 15 18 21 24 28 31 32 32 32 32 33 33 32 33 33 33 33 32 31 30 29 30 30 30 29 29 29 29 28 28 27 28 27 26 25 25 23 23 23 23 22 22 22 22
8 10 11 10 11 14 11 8 12 17 18 18 17 12 8 6 5 7 6 4 4 6 8 9 10 10 11 12 13 12 11 10 11 12 13 14 14 14 13 12 12 12 12 13 17 23 27 30 33 34 33 32 31 31 31 31 31 32 32 31 30 30 30 30 30 30 29 29 29 29 28 28 27 27 28 29 27 25 24 23 23 23 23 23 22 22 22
8 8 8 8 11 12 7 4 8 13 16 19 13 4 3 4 2 4 5 5 5 8 9 9 10 11 13 15 15 15 12 9 10 12 13 14 15 15 15 14 14 12 13 15 17 22 28 31 31 31 31 30 29 29 29 31 31 31 31 30 29 29 30 30 29 30 30 29 29 28 28 27 27 28 28 28 27 26 24 23 24 23 23 23 23 22 22
8 7 7 8 9 8 6 4 4 6 10 13 11 7 4 2 2 4 5 5 6 9 10 9 9 11 13 14 15 15 13 9 10 12 13 15 16 16 16 16 16 15 16 18 19 22 26 28 29 30 31 30 29 29 30 30 31 31 30 29 28 29 30 30 30 30 31 30 29 28 28 28 28 28 27 27 27 26 24 23 23 22 22 22 23 23 23
8 8 8 8 9 10 8 5 2 2 2 5 5 3 3 2 1 3 4 4 6 9 9 9 10 11 11 11 11 10 7 8 11 13 15 16 17 17 17 18 20 20 20 21 21 22 24 26 29 30 31 31 30 29 29 29 30 30 30 29 28 29 30 30 30 31 31 30 29 29 28 29 28 28 27 27 26 26 25 23 22 22 22 22 23 23 24
8 8 8 8 10 10 5 3 4 6 5 2 2 1 3 3 1 2 2 4 6 8 9 11 12 10 9 10 6 4 13 16 16 17 17 18 17 17 18 19 21 21 20 20 20 21 24 27 30 29 29 30 30 28 28 29 30 30 29 29 29 29 30 30 29 30 30 30 29 29 29 29 29 28 27 26 26 26 25 25 23 22 22 22 22 23 24
8 8 8 7 8 6 2 6 7 7 5 4 3 4 4 2 1 3 3 4 6 9 10 11 10 6 7 7 2 11 19 20 19 18 19 18 17 18 20 20 19 18 16 16 18 21 24 27 29 29 30 31 29 28 28 29 29 29 29 30 30 30 30 29 28 29 29 29 29 28 28 28 27 27 26 26 25 25 25 25 24 23 22 22 21 22 22
9 10 8 7 8 4 4 8 9 8 6 4 5 7 4 2 3 4 5 5 7 9 9 8 6 3 4 6 9 16 22 21 19 19 19 17 16 18 20 20 19 16 13 14 17 21 24 26 28 30 31 31 28 27 28 28 28 29 29 30 30 29 28 28 27 27 28 28 28 27 27 26 25 25 25 24 24 24 24 24 23 23 23 22 21 21 21
11 12 9 7 8 3 7 10 10 9 6 5 6 5 1 3 4 5 6 6 7 9 9 6 4 4 7 10 14 19 21 20 20 20 19 17 17 17 17 17 16 13 11 14 17 20 23 26 28 29 30 29 27 27 27 27 28 29 29 28 27 27 27 27 27 27 27 27 28 27 25 24 24 24 24 24 24 24 23 23 23 22 22 22 21 21 21
10 10 8 8 7 2 11 12 7 5 4 5 3 1 2 2 5 6 6 7 8 9 9 7 6 8 11 13 15 17 19 18 20 20 16 13 14 14 13 12 12 10 10 14 17 19 23 26 28 29 29 28 26 27 27 28 29 28 26 26 26 26 27 27 26 26 27 27 27 26 24 24 24 24 24 23 23 23 23 22 22 21 21 20 20 20 20
8 8 8 8 6 3 12 12 5 3 3 1 1 3 3 1 5 5 5 6 8 9 10 10 10 11 13 15 15 16 18 18 19 19 12 9 10 10 9 8 7 6 8 13 16 18 22 26 27 28 28 26 26 27 27 27 27 26 25 25 26 26 27 27 26 26 26 26 26 25 24 25 25 24 23 23 22 22 22 21 20 20 20 20 19 19 19
7 8 7 3 3 5 9 9 4 3 3 2 3 5 3 2 4 5 5 5 7 9 10 11 12 12 13 16 16 17 18 18 19 18 11 7 8 8 7 6 5 4 4 10 15 17 20 23 24 25 27 25 24 25 26 25 25 24 24 25 25 25 26 26 24 24 24 25 25 24 24 24 24 23 22 22 21 21 21 21 20 20 20 21 21 20 20
5 7 5 4 7 7 7 5 2 1 1 1 4 6 5 4 4 5 6 6 7 9 10 11 12 11 13 16 17 16 17 16 18 18 11 9 10 10 9 8 4 2 1 3 7 12 17 20 20 21 23 22 22 22 23 23 24 23 23 24 24 24 24 24 23 22 23 23 24 23 23 23 23 22 22 21 21 21 21 21 20 19 19 21 21 20 20
6 7 6 6 8 10 9 6 2 2 2 2 4 6 7 7 7 6 7 7 8 9 9 10 11 11 14 17 16 16 16 15 16 17 12 10 12 12 13 13 8 3 2 2 5 6 8 12 15 16 17 19 19 19 20 22 23 21 21 23 23 22 22 23 22 22 22 22 23 23 23 23 22 22 22 22 21 21 21 21 21 19 19 20 20 19 19
5 4 2 4 9 13 11 6 4 4 3 3 5 7 7 8 9 9 9 8 9 8 8 9 11 12 15 17 16 15 15 14 15 17 13 10 13 14 15 17 14 9 5 3 5 9 10 7 8 10 13 16 17 18 19 21 21 19 20 21 20 20 21 21 21 22 22 21 22 22 22 22 21 21 21 21 21 21 21 21 20 20 19 19 19 20 20
5 4 3 7 12 13 8 4 3 2 4 7 8 8 8 9 11 10 9 9 8 8 8 9 11 12 14 16 16 16 15 12 12 15 13 9 14 16 17 19 18 15 12 8 7 9 10 9 7 8 9 11 13 14 17 19 19 18 18 19 19 20 20 19 20 21 21 21 21 20 21 22 20 20 20 21 21 22 21 20 19 19 20 20 19 20 20
5 4 5 10 12 7 3 2 4 6 8 10 11 11 10 10 11 11 10 9 8 8 8 8 10 12 13 15 16 17 15 12 12 15 13 10 14 16 17 18 18 16 14 13 12 11 10 8 9 10 11 10 9 10 11 14 15 15 16 17 17 18 19 18 17 18 19 20 20 19 19 20 20 19 19 19 19 19 19 21 21 20 19 19 19 20 20
3 4 7 9 9 6 5 8 12 12 11 11 12 12 11 10 10 11 11 10 9 8 7 7 9 11 13 15 16 16 13 11 14 16 12 10 14 16 17 17 18 18 17 15 14 13 11 10 9 9 9 9 8 7 7 9 12 13 14 14 14 15 16 17 17 17 17 18 19 19 19 19 18 19 19 18 17 17 16 18 23 22 19 16 16 17 18
5 8 10 9 7 8 9 12 13 13 12 11 12 12 11 10 10 11 11 11 10 8 7 8 8 10 13 15 17 16 12 12 17 18 14 12 13 16 18 19 18 18 18 17 16 14 13 12 11 10 10 9 7 6 5 6 9 11 12 13 13 13 14 14 15 16 17 17 18 18 18 17 17 18 18 15 15 16 14 14 18 22 21 18 15 14 15
8 9 11 10 9 9 10 12 12 11 10 10 10 11 11 10 9 9 9 9 9 8 8 7 8 10 13 15 16 15 13 14 18 20 17 15 17 18 20 20 19 18 18 18 17 16 14 13 13 12 11 10 7 5 4 5 7 9 11 12 12 12 12 12 12 13 14 15 15 16 17 17 15 16 16 13 11 12 12 12 14 17 20 20 19 17 16
8 9 11 11 9 8 9 10 10 9 9 10 10 9 9 9 8 8 9 8 7 8 8 7 7 10 13 15 16 16 14 14 19 20 17 17 21 21 21 21 20 18 17 17 17 18 16 14 14 14 14 12 10 7 4 2 5 8 9 11 11 11 11 11 12 11 12 13 13 14 16 15 13 12 14 14 11 10 9 9 10 12 14 17 18 18 18
9 10 12 10 7 7 9 9 8 10 12 12 10 9 8 7 6 7 8 8 7 7 8 7 7 9 12 14 16 16 15 16 18 19 16 17 21 21 20 20 20 18 17 18 19 20 18 16 15 15 15 14 12 10 7 3 2 5 7 8 9 7 7 10 12 11 10 11 11 12 12 12 11 11 12 12 12 11 10 9 8 6 6 8 12 14 16
10 12 13 11 9 11 13 11 10 11 12 11 10 10 8 5 5 7 9 7 6 6 6 6 6 7 10 14 16 16 17 17 17 16 17 19 21 21 20 19 18 19 20 20 21 21 19 18 17 17 17 17 15 12 10 8 4 3 6 7 7 5 4 6 9 8 8 8 8 8 9 9 9 10 11 11 11 10 10 10 10 8 6 4 4 8 12
9 10 11 10 10 13 14 12 11 11 10 10 11 11 8 4 4 6 7 7 6 5 5 7 7 6 7 11 14 15 15 15 15 15 18 20 20 21 22 21 19 20 21 22 21 22 21 20 18 18 18 19 18 16 14 12 8 4 3 5 7 7 6 7 7 8 7 6 5 5 7 8 9 9 10 10 9 8 10 13 14 13 11 11 11 10 9
10 9 9 9 9 10 10 10 11 11 12 12 12 11 10 6 3 4 5 6 5 4 4 5 7 7 6 8 12 12 12 13 14 15 17 19 19 20 21 20 18 19 22 23 23 22 22 22 21 20 20 20 20 18 16 13 11 9 8 5 2 3 5 5 6 7 8 8 8 9 9 9 8 8 9 9 12 14 16 16 15 14 14 15 16 16 17
13 11 10 11 11 11 11 12 12 12 13 13 12 10 10 9 6 4 5 4 4 5 4 3 5 8 8 8 10 12 12 14 15 16 16 17 17 18 20 21 19 17 19 22 22 22 22 22 22 22 22 22 21 19 17 14 12 11 11 12 12 10 8 6 6 8 10 10 10 12 12 10 9 10 12 14 16 17 16 15 15 16 15 14 14 15 19
15 14 14 14 14 14 15 13 12 13 13 13 12 11 11 11 9 7 6 4 3 4 4 3 3 5 7 9 11 12 13 15 16 17 16 15 15 15 17 19 18 16 15 18 20 20 20 21 21 22 23 22 21 20 18 16 13 12 11 12 13 13 11 9 8 8 9 10 11 11 12 13 13 15 16 16 16 16 16 16 16 15 15 15 14 15 18
15 14 15 15 15 16 16 14 13 15 14 14 14 13 11 10 10 8 7 6 4 4 3 3 3 3 4 7 10 12 13 14 16 16 15 14 14 14 15 16 15 14 15 17 18 18 19 20 20 20 22 23 22 20 19 17 15 13 11 10 11 12 13 12 11 10 10 11 12 12 12 14 15 15 16 16 16 16 16 16 15 15 15 15 14 14 16
15 14 14 15 16 16 17 16 15 15 15 14 13 11 10 9 9 8 9 8 5 3 2 2 2 3 4 4 6 10 12 13 14 13 12 12 13 13 14 14 13 13 15 16 16 16 18 19 18 18 19 21 21 20 19 17 15 12 11 10 11 13 15 15 13 11 10 12 13 13 13 13 13 13 14 15 16 16 16 16 16 16 15 14 14 14 14
13 13 14 14 14 14 15 14 14 14 14 14 13 12 11 11 10 10 11 9 5 3 2 1 1 2 3 2 3 6 9 9 9 9 10 11 11 11 11 13 13 12 13 16 17 17 17 19 19 18 17 18 18 18 18 17 14 12 11 10 10 12 14 15 13 11 11 12 14 15 15 15 15 15 15 16 16 16 17 17 17 17 17 16 16 16 17
14 13 14 15 15 14 14 13 13 14 14 14 14 14 14 14 13 13 14 13 8 3 2 1 0 1 1 2 3 5 5 4 5 7 9 10 11 11 11 12 13 12 12 16 20 19 17 18 21 20 16 16 17 17 17 16 14 12 9 8 10 12 15 15 12 11 11 12 14 15 16 16 17 17 17 17 17 16 17 18 18 18 19 18 17 19 21
15 13 13 14 17 18 17 15 15 16 14 13 13 14 16 18 18 16 16 16 13 7 3 2 1 2 1 1 2 4 5 7 7 8 9 10 12 13 12 13 14 13 11 14 21 22 17 16 19 19 15 14 16 16 14 14 12 10 8 8 9 12 15 15 12 10 10 12 14 17 18 19 19 19 18 18 17 17 17 18 17 18 19 19 18 18 18
15 14 14 15 17 19 19 18 18 19 17 16 16 17 19 21 21 19 18 19 18 14 9 6 4 5 7 8 9 9 10 11 10 10 10 11 12 15 16 16 16 15 12 12 18 20 19 18 18 17 14 14 14 13 11 10 10 9 7 7 10 12 14 13 11 9 9 12 14 17 17 18 18 18 18 18 17 17 17 17 16 16 17 17 17 16 15
15 16 16 16 17 18 19 19 19 20 19 18 19 21 21 22 22 21 20 21 21 19 16 14 13 13 13 13 13 13 13 13 12 12 12 11 12 15 17 16 15 14 12 13 16 18 19 19 17 15 14 14 14 12 9 7 6 8 9 9 10 13 13 11 9 8 8 10 13 15 15 16 17 17 17 17 17 16 15 15 15 16 16 15 15 15 15
14 15 16 16 16 17 19 19 20 20 20 19 19 21 22 22 22 21 21 23 23 21 18 16 16 16 15 14 14 14 15 14 13 12 12 12 12 14 16 17 17 15 13 14 15 17 18 18 16 14 14 14 13 13 11 7 7 8 10 11 11 12 12 11 8 7 8 10 12 14 15 15 16 16 16 17 17 16 16 16 16 16 16 16 16 16 16
11 13 15 15 16 17 18 19 19 20 21 20 20 20 21 22 22 22 22 23 23 22 20 18 16 15 15 14 14 14 15 16 15 14 12 12 13 13 14 17 18 17 14 13 14 15 15 16 15 14 14 13 13 12 12 10 9 9 10 11 10 10 11 11 9 8 8 9 11 12 13 14 14 15 15 16 16 16 16 16 16 16 16 16 16 16 16
11 13 14 15 16 17 17 18 19 20 21 21 21 21 21 21 21 22 23 23 23 23 22 20 18 16 15 15 16 16 17 17 18 17 15 14 14 12 12 14 17 17 14 14 14 14 13 14 15 14 13 14 14 12 11 11 11 11 12 12 11 11 11 11 11 10 9 9 11 12 13 14 14 15 14 14 15 15 15 15 16 16 16 16 16 15 15
12 13 14 14 15 16 17 17 18 19 20 21 21 21 21 21 21 21 21 22 23 23 23 22 21 19 18 17 17 18 18 18 19 20 20 19 16 13 11 12 15 16 14 14 16 16 16 17 17 15 14 14 14 12 12 14 16 16 16 16 15 14 14 13 12 12 11 10 10 12 13 14 14 14 14 14 14 13 14 14 15 15 16 16 16 16 16
12 13 13 13 14 15 16 17 17 17 18 20 21 21 20 20 20 21 21 21 22 23 23 23 22 21 19 18 17 17 17 17 17 18 19 20 20 18 15 14 15 16 15 16 17 18 19 19 19 18 16 15 15 15 17 20 21 22 21 20 19 18 18 17 15 14 13 12 12 13 14 15 16 16 16 16 16 15 15 15 16 16 17 17 16 17 17
12 12 12 13 13 14 14 15 16 16 16 17 19 20 20 20 20 20 20 21 21 22 22 22 22 21 20 20 18 17 17 17 17 16 16 17 19 20 19 17 16 17 17 18 19 20 21 21 22 22 22 23 24 26 28 30 29 28 28 26 24 23 22 22 20 18 17 16 15 16 17 19 19 20 19 19 19 19 19 18 18 19 19 18 19 21 22
12 11 12 12 12 12 12 13 14 15 15 16 17 19 20 20 20 19 19 20 21 21 20 21 21 21 20 20 19 17 17 18 18 17 16 14 15 17 18 18 18 18 19 21 22 23 24 25 27 28 29 30 31 32 35 36 35 34 34 34 33 32 30 29 27 25 23 21 22 23 23 23 24 25 26 25 24 23 21 20 20 21 21 21 22 24 25
12 12 12 12 12 11 10 11 12 13 15 15 16 17 18 19 18 18 18 19 19 20 20 20 20 20 20 20 18 17 16 17 19 20 20 18 17 18 20 21 21 21 21 22 23 24 26 28 31 33 32 31 32 34 35 36 36 35 35 35 36 35 34 33 32 30 28 25 26 27 28 28 28 28 29 29 28 27 25 24 24 24 24 23 23 22 22
11 12 12 12 11 10 10 10 11 12 13 13 13 14 16 17 17 16 17 17 17 17 17 17 18 19 20 20 20 18 16 15 17 20 21 21 21 21 21 22 23 25 26 27 28 28 30 32 35 35 33 33 34 34 34 34 33 32 31 32 33 32 32 32 33 32 30 28 27 28 29 30 29 28 28 27 26 26 25 25 25 24 24 23 23 21 20
10 11 12 12 11 10 9 8 9 10 12 12 13 13 15 16 16 16 16 15 15 16 16 16 17 18 19 20 20 20 18 16 16 17 18 20 21 22 22 22 23 25 28 29 31 33 35 38 40 39 37 36 36 36 35 35 35 34 32 30 29 29 29 30 31 31 31 30 29 29 30 30 30 29 27 25 23 21 21 21 22 21 20 20 19 18 17
9 10 11 11 11 9 8 6 6 8 10 12 12 12 13 14 15 15 16 15 15 16 17 16 16 16 17 18 19 20 21 20 19 17 17 18 20 22 23 23 23 24 26 28 30 34 38 41 42 41 40 39 38 37 37 37 37 36 35 32 30 29 29 29 30 31 31 30 29 29 28 27 27 26 26 25 24 22 21 20 19 19 19 18 16 15 15
8 9 10 10 10 10 8 7 7 8 9 10 10 11 12 13 14 15 15 15 15 16 16 16 15 15 16 16 17 18 20 21 22 21 21 21 22 23 23 22 23 25 26 26 29 33 38 41 43 43 42 41 39 38 37 37 36 35 34 33 32 31 30 29 29 29 28 26 26 26 25 24 23 23 23 22 22 20 19 18 17 17 18 17 16 15 15
6 8 8 9 10 10 10 10 10 9 7 7 9 11 12 12 13 14 14 14 14 15 15 16 16 16 16 16 16 17 18 19 20 21 22 23 24 25 24 24 24 26 26 26 27 30 34 37 39 40 41 39 37 35 35 35 34 31 30 31 31 30 28 28 29 29 28 27 27 26 25 24 23 22 21 19 18 17 16 15 15 16 17 17 16 16 15
5 7 8 8 9 9 10 11 11 9 6 6 9 11 11 11 12 13 13 13 13 14 14 15 15 16 16 16 17 17 18 18 19 19 20 21 21 22 24 24 24 25 26 27 28 29 31 33 34 35 36 36 35 34 35 34 31 27 25 26 28 27 26 25 25 25 26 26 26 25 23 22 22 21 19 17 16 15 15 15 15 16 16 17 16 16 15
Wind_Direction
265 273 279 281 278 273 271 271 269 258 240 228 227 232 231 224 231 238 229 235 261 251 252 281 329 342 331 324 333 334 330 331 336 336 271 254 246 226 206 196 195 196 195 192 189 187 190 192 194 194 195 195 194 193 192 192 192 192 190 189 190 190 190 192 193 192 192 193 193 194 195 196 198 201 202 204 204 204 205 206 208 211 211 211 209 209 210
268 270 272 271 267 266 264 261 259 259 255 244 234 235 234 230 237 247 251 273 274 260 275 312 323 326 322 319 323 321 321 341 350 325 299 281 271 251 221 203 198 198 197 194 191 188 189 192 194 195 195 195 195 194 192 191 191 191 189 189 189 190 191 192 191 189 188 189 190 191 192 193 195 197 199 201 202 203 205 207 209 211 211 212 211 211 210
271 270 271 266 259 258 260 258 254 253 252 245 238 234 231 231 235 238 244 257 262 263 304 334 325 316 313 308 310 316 327 345 343 326 315 308 304 297 269 232 213 205 202 200 196 191 191 194 195 196 195 195 195 194 192 191 191 189 188 188 189 190 191 190 187 185 185 185 187 188 190 190 191 194 197 199 201 202 204 207 209 210 210 212 213 213 211
272 270 268 261 256 256 256 253 248 245 244 241 235 228 225 230 228 220 226 237 243 268 326 340 326 313 304 296 301 313 327 339 337 326 319 316 313 311 301 282 253 228 214 206 200 197 197 197 197 197 195 194 194 194 193 192 190 189 188 189 189 189 189 186 183 183 183 183 185 186 187 188 189 192 194 197 199 201 204 206 207 208 210 212 213 214 214
275 277 269 259 253 252 250 245 239 236 236 238 236 225 218 230 231 220 222 231 246 326 338 335 327 322 310 299 306 318 325 328 327 320 316 314 312 309 303 294 279 259 240 220 207 203 201 198 198 197 194 193 193 193 192 190 189 189 189 188 188 187 186 183 182 182 181 182 184 185 186 187 188 190 193 197 200 201 203 205 206 208 211 212 213 214 215
270 281 284 271 248 239 239 244 239 231 226 228 233 227 200 195 229 245 257 284 328 340 334 321 316 316 309 303 303 302 304 312 316 315 313 312 311 308 302 293 283 272 261 243 222 210 204 200 200 198 195 194 193 191 189 188 188 189 189 187 186 185 184 182 181 180 181 183 185 185 186 186 188 190 194 197 200 202 203 205 207 209 211 212 213 214 215
264 276 279 264 244 234 237 265 249 238 231 222 215 190 152 182 239 291 285 289 317 324 316 310 311 305 297 295 292 286 284 291 302 307 308 308 307 304 300 296 291 283 270 256 236 218 209 202 198 196 194 193 191 187 186 186 187 188 187 186 186 184 183 182 180 181 182 184 186 186 186 187 190 193 196 198 200 203 205 207 208 209 211 213 213 213 215
255 257 246 246 248 241 241 248 235 240 230 201 167 121 117 193 300 302 277 282 308 310 307 311 312 303 295 291 282 272 266 271 292 304 306 305 302 300 298 295 290 283 269 255 240 223 212 204 196 193 192 190 188 187 185 185 185 186 186 186 186 184 184 183 182 183 185 185 186 187 187 190 194 196 198 199 201 202 205 208 210 209 211 213 213 213 215
240 245 240 247 261 260 244 216 207 289 244 170 156 144 144 135 354 305 285 290 301 308 319 327 319 306 296 281 264 263 289 314 314 310 304 299 296 296 296 293 286 279 265 252 240 223 210 202 196 193 191 188 186 186 185 184 184 185 184 185 186 185 185 186 185 185 186 186 187 188 190 193 196 198 199 199 200 201 203 206 208 209 210 213 214 215 216
232 242 246 246 254 254 223 128 44 359 353 354 308 241 157 140 49 334 320 318 326 331 336 336 329 307 271 248 237 354 358 343 327 316 306 297 294 296 298 294 287 276 258 242 232 217 204 199 195 190 188 186 183 183 184 184 184 184 185 186 186 185 186 187 186 185 187 187 188 190 192 195 198 198 198 199 199 200 202 205 208 209 210 213 215 216 216
229 234 240 238 241 236 112 51 17 357 345 335 298 225 190 164 40 19 5 354 354 348 339 341 341 311 252 241 304 360 343 327 320 315 303 294 295 298 296 294 290 276 251 232 223 210 200 196 191 185 184 182 180 180 183 183 183 184 186 186 186 186 186 186 185 184 186 187 189 191 194 196 198 197 197 198 199 199 202 205 208 209 211 213 216 217 218
232 235 237 240 244 243 34 8 346 342 334 309 240 218 196 84 36 20 21 18 8 352 341 348 1 354 300 296 318 328 321 316 315 307 293 290 296 297 296 299 298 282 247 221 213 203 195 192 186 180 179 178 176 178 181 182 184 186 187 187 187 186 185 183 182 183 184 187 189 192 195 195 196 197 197 198 199 199 202 206 208 210 212 213 216 218 219
232 235 235 251 255 281 5 349 342 347 319 243 206 213 204 46 30 29 32 25 11 356 346 350 0 343 321 309 309 314 315 315 313 303 290 290 294 294 299 305 302 282 237 211 208 201 191 186 180 175 175 176 175 176 179 182 188 189 187 185 184 183 182 181 181 182 184 187 189 192 194 194 195 198 199 199 200 201 203 206 208 210 212 214 218 220 221
230 233 236 254 252 348 5 340 336 2 307 232 182 275 288 347 16 26 29 22 11 354 344 345 333 317 317 316 314 316 317 317 311 301 294 295 296 297 302 302 294 275 235 213 210 199 184 179 177 175 176 176 173 174 180 186 189 187 183 182 181 180 180 180 181 182 184 186 188 190 192 193 194 198 200 202 203 203 205 208 208 208 210 213 217 221 222
231 232 231 242 241 12 3 338 327 21 352 272 24 299 260 357 10 0 10 21 9 348 341 340 328 321 325 325 322 320 321 320 313 306 308 316 308 305 307 306 305 291 243 214 206 195 182 179 180 177 176 175 172 175 183 186 184 181 179 179 179 178 179 179 180 182 184 185 187 191 193 193 195 198 200 202 204 204 206 209 208 209 211 213 218 222 223
224 224 219 238 286 340 354 342 339 24 31 41 358 327 319 16 2 343 348 4 359 346 341 335 327 327 330 328 329 329 327 324 316 312 325 352 336 325 327 326 338 337 263 216 201 190 180 179 180 177 174 172 172 177 181 179 177 177 177 176 176 176 177 179 179 181 183 185 188 192 194 194 196 198 199 200 203 204 205 208 209 210 212 215 219 224 226
263 258 262 327 331 325 333 333 325 1 11 346 336 332 328 327 336 342 336 335 342 342 337 332 330 329 324 324 330 329 322 321 314 309 327 18 17 6 5 360 10 44 319 222 183 178 178 178 177 175 174 172 172 174 174 171 173 174 172 172 174 175 176 178 179 179 183 187 191 193 194 194 196 198 199 199 201 201 204 207 209 210 212 216 218 221 225
305 285 271 296 311 316 319 306 256 227 247 284 321 323 317 315 319 325 323 321 326 330 333 336 334 322 314 319 328 327 321 322 318 312 330 24 32 27 25 16 18 76 119 91 93 109 143 166 173 177 178 176 171 168 167 168 170 170 170 171 173 175 176 177 179 181 184 189 192 195 196 197 198 199 200 200 200 200 202 206 208 210 213 216 215 216 221
312 290 263 302 309 314 310 280 218 215 259 307 326 316 307 305 307 310 315 315 314 320 334 339 331 320 314 318 327 330 323 322 322 317 328 19 36 34 34 28 25 37 55 83 93 74 69 97 149 169 176 176 170 164 165 169 170 169 171 173 174 176 179 180 182 186 188 191 193 195 196 198 200 201 202 201 200 199 201 204 205 206 211 214 215 215 219
289 286 318 323 312 304 287 238 198 243 301 320 322 311 303 301 301 303 307 309 311 320 335 337 328 321 318 321 330 332 324 322 325 319 325 12 37 35 35 35 35 36 35 43 70 73 63 69 86 99 121 147 156 158 165 172 174 174 175 177 179 181 182 183 186 189 190 191 193 194 195 198 201 202 202 203 204 204 204 204 204 205 209 213 215 217 219
287 290 328 333 321 301 251 278 318 312 313 316 312 307 305 301 298 299 302 305 310 316 329 337 331 323 322 327 332 329 325 327 326 315 320 4 31 29 29 35 42 46 44 45 53 61 62 64 66 69 77 92 109 129 153 168 174 176 177 180 182 182 183 185 187 188 189 191 193 195 195 196 200 202 203 204 206 207 207 207 208 210 213 214 216 219 221
326 343 343 335 325 303 293 313 316 312 312 311 305 303 303 299 299 300 300 302 306 312 330 346 341 330 327 328 329 326 325 330 325 315 324 7 26 27 28 32 39 46 49 49 51 55 58 62 69 75 76 74 82 101 131 160 171 173 173 175 179 182 184 187 189 189 191 193 196 198 199 196 195 196 198 201 202 202 204 206 209 213 216 215 215 219 221
333 342 340 329 313 298 299 308 312 312 311 307 300 300 299 295 298 299 297 300 306 314 333 348 347 338 329 326 328 326 323 328 327 324 336 10 24 26 30 32 33 37 41 43 47 49 52 59 67 77 79 77 83 102 127 159 175 178 177 178 183 188 190 192 193 194 196 197 197 199 204 203 193 185 187 193 197 200 204 204 205 210 216 217 214 214 214
332 338 337 325 310 306 311 315 313 311 311 305 298 295 294 292 297 298 292 291 298 309 324 338 347 344 331 324 328 327 322 331 336 333 342 12 26 28 30 31 31 32 33 36 40 43 45 51 59 67 71 67 65 81 118 151 172 181 182 183 187 192 191 189 189 193 198 200 199 199 203 206 196 182 178 179 182 194 208 210 206 207 213 218 220 219 217
337 337 333 321 312 321 330 324 316 322 331 322 306 296 292 291 295 297 290 285 289 304 316 327 343 344 330 322 327 329 324 333 340 336 344 16 31 31 29 29 29 31 32 31 34 38 41 46 50 54 56 53 46 44 57 125 166 177 184 186 188 189 189 186 185 187 190 193 197 200 201 200 192 182 183 186 181 174 181 198 208 210 213 217 221 224 225
343 339 335 329 327 345 350 339 331 335 336 327 316 309 304 299 295 291 285 281 285 297 307 317 328 334 327 322 326 329 325 329 339 341 353 20 30 26 23 24 25 27 29 31 32 35 39 44 45 44 44 40 36 34 30 26 145 171 184 192 188 181 184 187 184 180 181 185 188 190 190 186 183 184 189 192 185 171 167 176 186 192 203 216 221 224 225
350 350 351 349 348 352 353 348 335 328 327 329 329 323 318 315 301 285 278 277 284 291 301 311 316 328 333 329 327 327 326 329 339 350 3 20 25 21 18 20 23 24 29 33 34 35 38 43 45 43 37 28 23 27 30 22 25 145 173 190 189 170 165 185 187 184 191 194 186 175 168 166 169 174 176 181 186 189 186 174 153 127 109 124 175 204 212
356 357 0 358 347 342 343 341 334 329 333 340 340 333 327 319 289 279 279 282 292 302 315 322 323 337 345 331 324 326 330 331 338 352 6 16 21 18 15 17 21 27 33 36 35 35 36 37 38 39 33 23 18 21 27 24 20 44 121 180 195 184 172 181 189 187 186 185 176 168 171 175 177 176 174 176 174 158 136 128 123 111 101 101 108 125 156
0 357 359 356 344 338 342 346 348 351 352 350 347 345 341 330 297 281 288 288 290 303 318 320 319 327 337 330 324 327 332 332 333 344 359 11 18 17 14 13 18 30 37 37 33 32 31 29 29 28 23 17 16 20 27 30 32 37 42 40 51 138 147 151 151 145 143 143 145 149 154 161 164 160 148 135 126 118 113 114 118 116 112 111 110 111 118
358 358 358 355 351 356 3 2 359 0 358 353 349 348 345 344 347 335 316 302 288 288 293 300 310 318 328 330 326 326 328 328 329 334 347 5 18 19 16 15 17 24 31 31 28 26 27 28 29 25 16 11 12 17 22 28 36 45 49 47 48 59 74 87 105 119 126 130 134 138 142 142 132 119 110 106 108 113 116 119 121 122 123 125 122 117 118
354 359 2 2 2 7 10 7 2 1 0 356 353 353 351 349 351 347 337 328 301 281 284 289 295 308 322 324 322 323 326 327 328 332 343 2 18 21 20 21 20 18 19 22 23 24 25 27 27 21 13 9 10 15 17 19 25 38 53 58 59 64 68 70 81 99 112 117 119 120 122 122 118 111 110 110 112 115 119 121 122 124 128 129 127 127 129
353 359 4 7 8 9 10 8 3 1 1 358 357 357 353 344 341 340 336 330 310 283 283 294 295 308 318 317 318 323 327 327 328 333 344 1 13 18 22 24 20 15 14 17 20 23 26 27 25 19 12 9 9 12 15 17 21 30 42 53 61 64 61 59 64 75 88 98 103 103 102 105 108 110 112 115 118 119 121 122 123 126 129 127 123 127 134
359 3 7 8 9 8 8 7 3 359 359 358 357 357 354 345 340 338 334 328 318 301 296 307 323 318 301 292 307 319 324 327 329 336 352 7 11 13 18 19 14 12 15 17 19 21 23 23 22 20 17 13 10 10 12 15 19 26 33 44 59 64 60 55 55 62 75 85 90 93 96 98 101 105 110 116 120 122 123 122 120 117 114 110 108 117 133
10 12 11 10 11 9 6 5 2 360 358 357 360 3 0 353 350 347 342 340 339 332 321 325 330 307 294 289 302 306 310 321 330 340 358 10 11 10 16 22 21 18 17 18 20 21 20 16 11 12 17 19 15 11 9 9 13 19 26 37 56 65 63 58 52 53 65 78 84 90 95 97 98 103 109 114 117 118 118 118 115 110 105 100 99 106 118
19 19 17 16 17 15 12 7 5 4 3 360 1 4 3 360 358 356 351 349 353 15 40 36 60 230 261 278 282 285 299 331 357 1 8 15 14 10 16 28 30 23 19 18 17 17 19 16 8 3 8 20 23 18 10 6 8 12 20 36 57 67 68 65 57 53 61 72 81 88 93 96 99 103 105 107 108 108 109 109 107 106 106 106 104 103 105
21 20 18 17 16 17 18 16 11 8 8 5 4 5 6 6 5 2 360 0 5 20 63 112 167 169 143 48 0 10 23 32 32 25 24 29 27 22 25 33 29 22 20 17 10 5 7 11 9 3 5 16 26 25 16 7 4 4 10 30 53 65 69 68 62 57 61 70 81 88 93 97 99 100 100 100 101 103 107 107 105 105 108 112 112 107 101
27 23 19 18 16 16 19 19 16 13 12 10 9 9 10 10 9 7 9 13 15 20 36 55 70 81 78 65 52 44 41 40 38 35 37 43 41 35 35 34 26 20 21 15 5 360 359 2 6 10 13 15 21 26 25 14 3 356 1 26 46 56 63 67 68 69 74 81 87 91 94 97 98 98 99 101 104 106 108 109 109 107 107 109 111 109 103
29 27 23 20 19 19 20 21 20 18 16 13 13 14 14 13 11 11 15 20 22 24 33 44 53 61 63 58 51 44 38 35 37 39 44 50 49 44 41 35 25 19 15 6 1 4 5 2 3 10 16 16 15 18 26 35 28 13 11 27 46 56 61 67 72 80 87 91 93 95 98 100 102 102 103 106 109 110 110 110 109 108 105 103 103 103 102
23 24 23 23 23 23 24 24 23 23 21 18 17 16 16 16 15 15 18 22 24 27 34 44 52 56 59 58 54 47 39 36 38 41 45 48 47 44 41 34 26 22 16 5 4 9 10 7 8 13 16 15 14 12 15 34 51 39 29 33 47 62 72 75 77 85 94 95 94 95 96 97 99 102 105 108 108 107 106 107 108 106 104 102 100 99 99
17 16 18 22 25 25 24 25 26 26 25 24 23 21 19 19 20 22 24 24 24 28 35 42 49 54 57 61 61 56 49 46 46 46 48 50 48 43 37 29 23 22 22 19 17 16 13 12 15 18 18 20 21 17 15 23 38 45 47 48 54 68 83 89 89 90 92 91 90 89 89 89 91 93 97 101 103 104 104 105 105 104 103 101 98 96 95
15 12 13 19 25 27 26 26 27 28 28 27 26 25 24 23 24 27 30 29 27 30 37 42 46 50 54 59 64 63 58 55 53 51 50 51 49 47 41 31 23 23 28 34 35 33 30 28 27 25 27 32 33 32 36 45 50 54 59 62 63 68 80 91 96 96 93 91 90 88 86 87 87 86 87 91 94 97 100 100 100 100 100 98 96 96 95
11 12 12 15 21 25 27 27 28 30 31 30 29 28 28 27 26 28 31 31 31 33 36 40 43 46 48 52 58 60 59 60 60 58 56 53 52 52 51 41 32 31 38 44 45 43 41 39 35 32 35 43 46 52 65 71 69 65 65 64 64 64 66 71 80 85 84 86 92 93 91 89 87 85 83 82 82 84 88 91 92 93 93 94 94 94 94
7 9 12 14 16 20 25 29 31 32 34 34 34 33 32 32 31 31 31 32 33 35 36 37 39 41 43 46 49 50 51 54 60 63 63 60 57 56 56 51 43 41 44 50 51 50 49 49 47 46 51 60 67 75 79 78 75 73 70 66 64 65 65 64 66 68 70 75 82 86 85 86 87 86 83 81 78 78 80 83 85 87 89 90 91 91 91
10 8 8 9 13 17 23 28 32 35 36 37 38 37 37 37 36 36 36 36 36 37 35 35 35 37 40 44 46 44 43 44 49 57 63 62 57 53 53 53 52 52 53 56 57 56 55 57 59 62 67 74 79 83 82 80 77 76 75 72 70 69 68 67 67 66 65 67 70 73 75 78 80 82 83 82 80 78 77 78 81 84 85 86 88 92 93
14 12 5 2 7 15 20 24 31 37 40 40 40 41 42 42 41 40 40 40 40 41 39 37 35 33 35 39 44 48 49 47 46 50 58 61 55 51 52 55 58 60 63 65 65 64 62 65 68 71 73 75 78 80 80 79 77 76 76 76 74 73 72 72 71 68 65 64 66 71 74 74 74 75 77 79 80 78 75 74 77 80 81 81 83 87 90
12 12 6 0 1 7 13 21 30 37 40 41 41 42 44 45 47 47 46 44 43 43 42 42 41 38 34 34 37 44 51 53 50 50 55 61 62 60 60 62 64 66 68 70 70 68 66 67 71 73 73 72 73 75 76 77 76 75 74 75 75 74 73 72 72 71 69 67 68 71 73 74 73 73 74 75 76 77 76 75 74 75 76 77 78 78 80
11 9 7 5 2 359 2 14 27 35 38 41 43 43 43 45 48 50 52 51 48 44 41 41 44 46 44 41 38 38 44 52 55 53 55 60 64 65 65 66 68 70 72 73 73 74 74 74 74 73 72 71 72 72 72 73 74 73 71 71 72 72 71 71 71 70 68 67 67 68 69 69 70 72 72 71 72 73 73 74 74 73 72 73 75 75 75
12 6 7 9 7 0 358 8 25 33 37 41 44 44 45 46 47 46 48 53 56 53 47 44 44 47 48 49 46 44 45 51 54 52 52 59 64 66 67 68 70 73 74 73 73 75 79 81 80 77 74 72 72 71 70 70 72 71 69 66 66 67 68 70 70 69 67 65 65 65 64 64 66 67 67 67 68 69 70 72 74 74 73 73 73 73 74
16 10 11 14 12 7 1 7 22 30 34 38 40 38 41 47 49 46 43 46 52 54 52 50 50 50 49 50 50 50 52 56 58 57 57 62 66 68 69 70 70 71 73 73 72 73 76 80 81 80 76 73 72 72 71 70 70 69 68 66 65 65 67 68 70 70 69 67 64 62 61 61 63 64 64 64 64 65 65 66 69 72 74 76 75 74 74
23 18 17 19 18 14 8 9 22 30 31 30 29 29 33 42 48 46 42 42 47 51 52 53 55 55 54 54 55 55 57 61 63 63 63 65 67 69 70 70 70 70 72 73 73 74 76 78 81 82 80 76 73 72 73 73 72 70 69 69 68 67 67 67 69 69 69 67 65 64 63 62 61 62 63 64 64 63 63 64 67 70 74 75 72 69 69
37 31 29 29 29 24 19 21 32 41 37 21 15 19 25 35 45 48 45 43 46 50 52 54 56 58 60 62 62 62 63 65 66 64 64 65 67 69 69 68 67 68 70 70 71 73 75 77 79 81 81 79 76 75 75 75 74 72 72 73 72 70 69 69 69 71 72 73 73 73 72 71 68 65 62 61 61 61 61 62 62 64 67 68 67 65 64
47 38 35 38 40 36 27 25 34 46 44 21 12 14 18 28 40 47 48 47 49 52 56 58 59 60 64 69 71 70 70 70 69 66 64 64 65 68 69 69 68 68 69 70 72 74 75 77 78 79 79 78 78 77 77 76 73 68 67 70 73 74 74 73 72 72 74 76 77 75 73 74 74 72 68 64 63 61 59 58 56 56 59 61 62 62 63